DW8343 Weather Reports


time (UTC)temp
C
wind
direction
speed
KPH
gust
KPH
rain 1hr
cm
rain 24hr
cm
rain mn
cm
humidity
%
barometer
mb
20260502190851 22 23 3.2 4.8 0.00 0.00 0.00 43 1022.0
20260502190348 23 54 0.0 1.6 0.00 0.00 0.00 41 1022.0
20260502185844 22 303 0.0 3.2 0.00 0.00 0.00 40 1022.2
20260502185339 22 195 1.6 1.6 0.00 0.00 0.00 41 1022.2
20260502184837 22 196 3.2 3.2 0.00 0.00 0.00 40 1022.2
20260502184332 22 33 1.6 3.2 0.00 0.00 0.00 43 1022.1
20260502183829 22 113 1.6 3.2 0.00 0.00 0.00 41 1022.1
20260502183325 22 271 1.6 3.2 0.00 0.00 0.00 44 1022.4
20260502182820 22 340 0.0 1.6 0.00 0.00 0.00 41 1022.5
20260502182316 21 8 1.6 3.2 0.00 0.00 0.00 42 1022.6
20260502181813 22 101 3.2 4.8 0.00 0.00 0.00 41 1022.7
20260502181312 21 227 0.0 4.8 0.00 0.00 0.00 46 1022.7
20260502180809 21 175 3.2 4.8 0.00 0.00 0.00 43 1022.7
20260502180307 21 218 0.0 3.2 0.00 0.00 0.00 45 1022.9
20260502170220 20 344 0.0 4.8 0.00 0.00 0.00 51 1022.9
20260502164207 20 220 0.0 3.2 0.00 0.00 0.00 50 1023.0
20260502163702 20 264 0.0 3.2 0.00 0.00 0.00 48 1023.1
20260502163159 20 203 0.0 1.6 0.00 0.00 0.00 50 1022.9
20260502162655 19 62 1.6 1.6 0.00 0.00 0.00 51 1023.2
20260502162152 18 55 0.0 1.6 0.00 0.00 0.00 55 1022.9
20260502161650 18 55 0.0 1.6 0.00 0.00 0.00 52 1023.0
20260502161146 18 55 0.0 1.6 0.00 0.00 0.00 51 1023.0
20260502160644 18 243 0.0 1.6 0.00 0.00 0.00 51 1023.0
20260502160143 17 356 0.0 0.0 0.00 0.00 0.00 52 1022.9
20260502152057 16 313 0.0 0.0 0.00 0.00 0.00 54 1023.0
20260502151554 16 304 0.0 1.6 0.00 0.00 0.00 56 1023.0
20260502151052 16 262 0.0 1.6 0.00 0.00 0.00 56 1023.0
20260502150549 16 248 1.6 3.2 0.00 0.00 0.00 54 1023.0
20260502130427 12 308 1.6 1.6 0.00 0.00 0.00 67 1022.4
20260502123410 10 330 0.0 1.6 0.00 0.00 0.00 73 1022.1
20260502122908 10 222 0.0 1.6 0.00 0.00 0.00 75 1022.1
20260502122403 10 320 0.0 0.0 0.00 0.00 0.00 76 1021.9
20260502121902 10 278 0.0 0.0 0.00 0.00 0.00 75 1021.8
20260502121358 10 283 1.6 3.2 0.00 0.00 0.00 75 1021.7
20260502120856 10 110 0.0 0.0 0.00 0.00 0.00 75 1021.6
20260502120352 10 46 0.0 0.0 0.00 0.00 0.00 74 1021.8
20260502115849 10 277 0.0 0.0 0.00 0.00 0.00 74 1021.5
20260502115347 10 60 0.0 3.2 0.00 0.00 0.00 74 1021.4
20260502114843 10 334 0.0 0.0 0.00 0.00 0.00 73 1021.3
20260502114340 9 330 0.0 0.0 0.00 0.00 0.00 74 1021.5
20260502113837 10 319 0.0 0.0 0.00 0.00 0.00 74 1021.7
20260502113334 10 269 0.0 0.0 0.00 0.00 0.00 73 1021.5
20260502112833 10 345 0.0 0.0 0.00 0.00 0.00 71 1021.7
20260502112329 10 346 0.0 0.0 0.00 0.00 0.00 71 1021.7
20260502111827 10 1 0.0 1.6 0.00 0.00 0.00 70 1021.6
20260502111324 10 138 0.0 0.0 0.00 0.00 0.00 70 1021.6
20260502110822 10 138 0.0 0.0 0.00 0.00 0.00 71 1021.7
20260502110320 10 138 0.0 0.0 0.00 0.00 0.00 70 1021.4
20260502105817 11 138 0.0 0.0 0.00 0.00 0.00 68 1021.7
20260502105314 11 138 0.0 0.0 0.00 0.00 0.00 68 1021.4
20260502104812 11 138 0.0 1.6 0.00 0.00 0.00 67 1021.5
20260502104308 11 235 0.0 1.6 0.00 0.00 0.00 67 1021.6
20260502103806 11 19 0.0 0.0 0.00 0.00 0.00 67 1021.8
20260502103303 12 4 0.0 0.0 0.00 0.00 0.00 66 1022.0
20260502102800 12 4 0.0 0.0 0.00 0.00 0.00 65 1021.8
20260502102256 12 4 0.0 0.0 0.00 0.00 0.00 65 1022.2
20260502101755 12 4 0.0 0.0 0.00 0.00 0.00 66 1022.2
20260502101252 11 341 0.0 0.0 0.00 0.00 0.00 67 1022.4
20260502100750 11 331 0.0 1.6 0.00 0.00 0.00 68 1022.5
20260502100249 11 307 0.0 0.0 0.00 0.00 0.00 68 1022.2
20260502091223 9 262 0.0 0.0 0.00 0.00 0.00 77 1020.7
20260502090720 9 261 0.0 0.0 0.00 0.00 0.00 75 1020.7
20260502090217 9 262 0.0 0.0 0.00 0.00 0.00 73 1020.7
20260502071113 10 262 0.0 0.0 0.00 0.00 0.00 70 1020.5
20260502070611 10 262 0.0 0.0 0.00 0.00 0.00 69 1020.7
20260502070109 10 262 0.0 0.0 0.00 0.00 0.00 69 1020.6
20260502065607 11 262 0.0 0.0 0.00 0.00 0.00 69 1020.6
20260502065104 11 262 0.0 0.0 0.00 0.00 0.00 68 1020.6
20260502064603 11 262 0.0 0.0 0.00 0.00 0.00 67 1020.6
20260502064100 11 262 0.0 1.6 0.00 0.00 0.00 66 1020.5
20260502063557 11 339 0.0 1.6 0.00 0.00 0.00 66 1020.7
20260502063055 11 337 1.6 3.2 0.00 0.00 0.00 67 1020.7
20260502062552 10 16 0.0 0.0 0.00 0.00 0.00 69 1020.7
20260502062050 11 16 0.0 0.0 0.00 0.00 0.00 69 1020.7
20260502061548 11 16 0.0 0.0 0.00 0.00 0.00 68 1020.8
20260502061045 11 16 0.0 0.0 0.00 0.00 0.00 69 1020.9
20260502060545 11 16 0.0 0.0 0.00 0.00 0.00 68 1020.9
20260502060042 11 16 0.0 0.0 0.00 0.00 0.00 67 1020.9
20260502055539 11 16 0.0 0.0 0.00 0.00 0.00 66 1020.9
20260502055038 11 16 0.0 0.0 0.00 0.00 0.00 67 1020.7
20260502054536 11 16 0.0 0.0 0.00 0.00 0.00 66 1020.8
20260502054033 11 16 0.0 0.0 0.00 0.00 0.00 66 1020.8
20260502053530 11 16 0.0 0.0 0.00 0.00 0.00 66 1020.8
20260502053028 11 16 0.0 0.0 0.00 0.00 0.00 69 1020.8
20260502052526 11 16 0.0 0.0 0.00 0.00 0.00 69 1020.7
20260502052024 11 16 0.0 0.0 0.00 0.00 0.00 70 1020.7
20260502051521 11 16 0.0 0.0 0.00 0.00 0.00 70 1020.7
20260502051019 11 16 0.0 0.0 0.00 0.00 0.00 69 1020.6
20260502050515 11 16 0.0 0.0 0.00 0.00 0.00 70 1020.8
20260502050012 11 16 0.0 0.0 0.00 0.00 0.00 70 1020.6
20260502045509 11 16 0.0 0.0 0.00 0.00 0.00 70 1020.8
20260502045006 11 16 0.0 0.0 0.00 0.00 0.00 71 1020.7
20260502044502 11 16 0.0 0.0 0.00 0.00 0.00 71 1020.9
20260502043959 11 16 0.0 0.0 0.00 0.00 0.00 70 1020.7
20260502043456 11 16 0.0 0.0 0.00 0.00 0.00 69 1020.8
20260502042955 11 16 0.0 0.0 0.00 0.00 0.00 70 1020.8
20260502042453 11 16 0.0 0.0 0.00 0.00 0.00 68 1020.8
20260502041950 11 16 0.0 0.0 0.00 0.00 0.00 68 1020.8
20260502041448 11 16 0.0 0.0 0.00 0.00 0.00 67 1020.7
20260502040944 12 16 0.0 0.0 0.00 0.00 0.00 67 1020.6
20260502040441 12 16 0.0 0.0 0.00 0.00 0.00 67 1020.8
20260502035937 12 16 0.0 0.0 0.00 0.00 0.00 67 1020.8
20260502035434 12 16 0.0 0.0 0.00 0.00 0.00 65 1020.8
20260502034932 12 16 0.0 0.0 0.00 0.00 0.00 64 1020.7
20260502034430 12 16 0.0 0.0 0.00 0.00 0.00 64 1020.7
20260502033928 12 16 0.0 0.0 0.00 0.00 0.00 63 1020.5
20260502033425 12 16 0.0 0.0 0.00 0.00 0.00 63 1020.4
20260502032922 12 16 0.0 0.0 0.00 0.00 0.00 63 1020.7
20260502032418 12 16 0.0 0.0 0.00 0.00 0.00 62 1020.5
20260502031916 13 16 0.0 0.0 0.00 0.00 0.00 62 1020.5
20260502031414 13 16 0.0 0.0 0.00 0.00 0.00 62 1020.7
20260502030912 13 16 0.0 0.0 0.00 0.00 0.00 62 1020.4
20260502030410 13 16 0.0 0.0 0.00 0.00 0.00 62 1020.4
20260502025908 13 16 0.0 0.0 0.00 0.00 0.00 63 1020.6
20260502025404 13 16 0.0 0.0 0.00 0.00 0.00 62 1020.2
20260502024902 13 16 0.0 0.0 0.00 0.00 0.00 61 1020.4
20260502024400 13 16 0.0 0.0 0.00 0.00 0.00 61 1020.2
20260502023858 13 16 0.0 0.0 0.00 0.00 0.00 60 1020.4
20260502023355 13 16 0.0 0.0 0.00 0.00 0.00 60 1020.1
20260502022853 13 16 0.0 0.0 0.00 0.00 0.00 60 1020.2
20260502022349 13 16 0.0 0.0 0.00 0.00 0.00 59 1020.0
20260502021846 13 16 0.0 0.0 0.00 0.00 0.00 60 1020.3
20260502021343 13 16 0.0 0.0 0.00 0.00 0.00 59 1020.0
20260502020840 13 16 0.0 0.0 0.00 0.00 0.00 58 1019.8
20260502020338 13 16 0.0 0.0 0.00 0.00 0.00 58 1019.8
20260502015835 13 16 0.0 0.0 0.00 0.00 0.00 58 1019.6
20260502015332 13 16 0.0 0.0 0.00 0.00 0.00 56 1019.7
20260502014829 14 16 0.0 0.0 0.00 0.00 0.00 55 1019.7
20260502014326 14 16 0.0 0.0 0.00 0.00 0.00 54 1019.5
20260502013822 15 16 0.0 0.0 0.00 0.00 0.00 54 1019.5
20260502013318 15 16 0.0 0.0 0.00 0.00 0.00 51 1019.5
20260502012814 15 16 0.0 0.0 0.00 0.00 0.00 50 1019.3
20260502012313 16 16 0.0 0.0 0.00 0.00 0.00 49 1019.4
20260502011809 16 16 0.0 0.0 0.00 0.00 0.00 48 1019.5
20260502011305 16 16 0.0 0.0 0.00 0.00 0.00 46 1019.3
20260502010803 17 16 0.0 0.0 0.00 0.00 0.00 44 1019.2
20260502010259 17 16 0.0 0.0 0.00 0.00 0.00 44 1019.0
20260502005756 17 16 0.0 0.0 0.00 0.00 0.00 42 1019.2
20260502005254 17 16 0.0 1.6 0.00 0.00 0.00 41 1019.2
20260502004751 17 20 0.0 1.6 0.00 0.00 0.00 39 1019.0
20260502004247 18 20 0.0 1.6 0.00 0.00 0.00 39 1018.9
20260502003745 18 47 0.0 0.0 0.00 0.00 0.00 40 1019.0
20260502003242 18 79 0.0 1.6 0.00 0.00 0.00 38 1018.7
20260502002737 18 80 0.0 0.0 0.00 0.00 0.00 39 1018.8
20260502002236 18 80 0.0 4.8 0.00 0.00 0.00 37 1018.9
20260502001732 18 57 0.0 1.6 0.00 0.00 0.00 38 1018.7
20260502001231 18 58 1.6 4.8 0.00 0.00 0.00 38 1018.8
20260502000728 18 20 0.0 1.6 0.00 0.00 0.00 37 1018.8
20260502000226 19 96 1.6 1.6 0.00 0.00 0.00 36 1018.9
20260501235721 18 34 0.0 3.2 0.00 0.00 0.00 35 1018.9
20260501235217 19 100 1.6 4.8 0.00 0.00 0.00 35 1018.9
20260501234713 19 35 0.0 1.6 0.00 0.00 0.00 35 1018.7
20260501234210 19 35 0.0 1.6 0.00 0.00 0.00 37 1018.9
20260501233708 19 88 0.0 1.6 0.00 0.00 0.00 35 1018.9
20260501233206 19 171 1.6 4.8 0.00 0.00 0.00 33 1018.8
20260501232701 20 1 0.0 1.6 0.00 0.00 0.00 33 1018.7
20260501232159 20 1 0.0 1.6 0.00 0.00 0.00 34 1018.7
20260501231656 20 101 1.6 1.6 0.00 0.00 0.00 34 1018.6
20260501231154 20 102 0.0 0.0 0.00 0.00 0.00 35 1018.5
20260501230652 20 101 0.0 0.0 0.00 0.00 0.00 33 1018.6
20260501230150 20 102 0.0 3.2 0.00 0.00 0.00 34 1018.4
20260501225648 20 101 0.0 3.2 0.00 0.00 0.00 35 1018.5
20260501225144 20 21 0.0 1.6 0.00 0.00 0.00 34 1018.4
20260501224641 20 351 0.0 0.0 0.00 0.00 0.00 34 1018.5
20260501224138 20 27 1.6 4.8 0.00 0.00 0.00 36 1018.5
20260501223634 20 18 0.0 1.6 0.00 0.00 0.00 34 1018.4
20260501223131 20 277 1.6 3.2 0.00 0.00 0.00 34 1018.3
20260501222627 20 346 1.6 3.2 0.00 0.00 0.00 35 1018.3
20260501222124 20 17 1.6 1.6 0.00 0.00 0.00 36 1018.2
20260501221621 20 36 4.8 6.4 0.00 0.00 0.00 34 1018.2
20260501221119 21 152 3.2 4.8 0.00 0.00 0.00 34 1018.4
20260501220616 21 32 0.0 6.4 0.00 0.00 0.00 36 1018.4
20260501220113 21 30 1.6 6.4 0.00 0.00 0.00 34 1018.3
20260501215609 21 348 1.6 3.2 0.00 0.00 0.00 33 1018.2
20260501215105 20 33 1.6 6.4 0.00 0.00 0.00 36 1018.3
20260501214600 20 80 3.2 3.2 0.00 0.00 0.00 35 1018.3
20260501214056 21 3 0.0 1.6 0.00 0.00 0.00 35 1018.3
20260501213553 21 16 1.6 3.2 0.00 0.00 0.00 35 1018.2
20260501213049 21 354 1.6 3.2 0.00 0.00 0.00 35 1018.3
20260501212545 21 98 1.6 3.2 0.00 0.00 0.00 33 1018.3
20260501212042 21 50 1.6 3.2 0.00 0.00 0.00 36 1018.4
20260501211539 21 10 1.6 1.6 0.00 0.00 0.00 35 1018.4
20260501211038 22 78 0.0 1.6 0.00 0.00 0.00 33 1018.5
20260501210533 22 2 0.0 3.2 0.00 0.00 0.00 35 1018.5
20260501210030 22 39 3.2 4.8 0.00 0.00 0.00 37 1018.4
20260501205527 21 243 3.2 6.4 0.00 0.00 0.00 37 1018.6
20260501205025 22 34 3.2 4.8 0.00 0.00 0.00 35 1018.7
20260501204520 22 146 1.6 3.2 0.00 0.00 0.00 34 1018.6
20260501204016 22 355 0.0 1.6 0.00 0.00 0.00 37 1018.8
20260501203513 22 246 0.0 3.2 0.00 0.00 0.00 38 1018.9
20260501203011 21 282 1.6 3.2 0.00 0.00 0.00 37 1019.2
20260501202508 20 296 3.2 6.4 0.00 0.00 0.00 40 1019.0
20260501202004 21 19 1.6 1.6 0.00 0.00 0.00 37 1019.0
20260501201501 22 280 0.0 3.2 0.00 0.00 0.00 36 1019.2
20260501200958 21 251 0.0 4.8 0.00 0.00 0.00 37 1019.2
20260501200455 21 28 1.6 1.6 0.00 0.00 0.00 39 1019.3
20260501195952 21 305 1.6 3.2 0.00 0.00 0.00 40 1019.4
20260501195449 20 8 1.6 1.6 0.00 0.00 0.00 42 1019.5
20260501194945 20 57 3.2 3.2 0.00 0.00 0.00 40 1019.5
20260501194441 21 132 1.6 4.8 0.00 0.00 0.00 39 1019.8
20260501193937 22 26 0.0 3.2 0.00 0.00 0.00 37 1019.7
20260501193435 21 121 0.0 4.8 0.00 0.00 0.00 39 1019.8
20260501192933 22 30 3.2 9.7 0.00 0.00 0.00 38 1019.9
20260501192430 22 107 0.0 1.6 0.00 0.00 0.00 36 1019.9
20260501191927 21 48 1.6 3.2 0.00 0.00 0.00 38 1020.0
20260501191424 21 327 1.6 1.6 0.00 0.00 0.00 39 1020.0
20260501190921 21 86 6.4 9.7 0.00 0.00 0.00 35 1020.1